Location: Trebic
(49.2170°N, 15.8830°E)
Time: 04:44:12
(UTC+02:00)

Transit 2A Rocket - Pass Details

Date: 26 July 2019
Orbit: 590 x 913 km, 66.7° (Epoch: 21 August)

Event Time Altitude Azimuth Distance (km) Brightness Sun altitude
Rises 10:46:00 0° 325° (NW) 3,203 7.8 49.6°
Reaches altitude 10° 10:48:32 10° 329° (NNW) 2,221 7.2 49.9°
Maximum altitude 10:53:29 58° 49° (NE) 786 6.0 50.6°
Drops below altitude 10° 10:57:59 10° 129° (SE) 2,023 8.1 51.1°
Sets 11:00:12 0° 133° (SE) 2,892 8.6 51.4°
